Location: Coopersdale
(40.3556°N, 78.9372°W)
Time: 19:52:11
(UTC+00:00)

Transit 4A - Pass Details

Date: 24 January 2021
Orbit: 866 x 978 km, 66.8° (Epoch: 26 February)

Event Time Altitude Azimuth Distance (km) Brightness Sun altitude
Rises 22:47:46 0° 172° (S) 3,650 11.2 -4.9°
Reaches altitude 10° 22:50:43 10° 161° (SSE) 2,714 10.4 -5.4°
Maximum altitude 22:55:51 26° 106° (ESE) 1,806 9.0 -6.3°
Drops below altitude 10° 23:01:00 10° 53° (NE) 2,727 9.7 -7.2°
Enters shadow 23:02:14 - 47° (NE) 3,105 10.1 -7.4°
Sets 23:03:57 0° 41° (NE) 3,671 - -7.8°
